AQUA

Last updated on Thu Dec 18 2025 00:02:16 GMT+0000 (Coordinated Universal Time)

1 27424U 02022A 25351.63912486 .00000864 00000+0 18278-3 0 9996 2 27424 98.4042 312.5979 0001274 113.5364 60.1013 14.61820480256740
UTC large
Height (km)
Speed (km/s)
/
Latitude / Longitude
Inclination (degrees)
Orbital Period (minutes)
Azimuth
Elevation
Range (km)
Doppler Factor

Next 0 passes for location: London (51.5072 / 0.1276)

Sorry there are no passes over London.